Location: Hiram
(41.3130°N, 81.1440°W)
Time: 20:23:25
(UTC-04:00)

Iridium 62 - Visible Passes

Search period start: 20 August 2014 00:00
Search period end: 30 August 2014 00:00
Orbit: 776 x 779 km, 86.4° (Epoch: 20 August)

Date Brightness Start Highest point End Pass type
(mag) Time Alt. Az. Time Alt. Az. Time Alt. Az.
20 Aug 8.3 00:57:10 13° WNW 00:57:10 13° WNW 00:59:24 10° NW visible
20 Aug 6.5 22:43:09 38° ENE 22:43:09 38° ENE 22:47:16 10° NNE visible
21 Aug 7.7 00:23:36 23° WNW 00:23:36 23° WNW 00:27:23 10° NNW visible
21 Aug 7.2 22:09:35 22° ENE 22:09:35 22° ENE 22:13:05 10° NNE visible
21 Aug 6.9 23:50:02 40° WNW 23:50:02 40° WNW 23:54:28 10° NNW visible
22 Aug 7.7 21:36:00 12° ENE 21:36:00 12° ENE 21:37:54 10° NE visible
22 Aug 6.0 23:16:28 69° NW 23:16:28 69° NW 23:21:09 10° N visible
23 Aug 6.0 22:42:52 56° ENE 22:42:52 56° ENE 22:47:33 10° N visible
24 Aug 8.1 00:23:20 16° WNW 00:23:34 16° WNW 00:26:46 10° NW visible
24 Aug 6.7 22:09:16 32° E 22:09:16 32° E 22:13:38 10° NNE visible
24 Aug 7.4 23:49:43 29° W 23:49:44 29° W 23:54:15 10° NNW visible
25 Aug 7.3 21:35:38 18° E 21:35:49 18° E 21:39:12 10° NE visible
25 Aug 6.4 23:16:06 53° W 23:16:06 53° W 23:21:09 10° N visible
26 Aug 5.7 22:42:27 84° E 22:42:29 85° E 22:47:43 10° N visible
27 Aug 8.5 00:22:54 11° W 00:23:54 11° WNW 00:25:20 10° NW visible
27 Aug 6.1 22:08:48 45° E 22:09:02 46° E 22:14:00 10° NNE visible
27 Aug 7.9 23:49:15 20° W 23:49:59 20° WNW 23:53:50 10° NNW visible
28 Aug 6.9 21:35:07 25° E 21:35:43 25° E 21:39:55 10° NNE visible
28 Aug 7.0 23:15:34 35° W 23:16:13 36° W 23:21:01 10° NNW visible
29 Aug 7.5 21:01:24 13° E 21:02:31 14° ENE 21:05:05 10° NE visible
29 Aug 6.0 22:41:51 59° SW 22:42:34 67° W 22:47:46 10° N visible
